Location: Unspecified
(0.0000°N, 0.0000°E)
Time: 20:59:11
(UTC+00:00)

Tiros 1 - Pass Details

Date: 29 October 2021
Orbit: 630 x 664 km, 48.4° (Epoch: 04 December)

Event Time Altitude Azimuth Distance (km) Brightness Sun altitude
Rises 18:06:16 0° 286° (WNW) 2,910 11.7 -5.5°
Reaches altitude 10° 18:09:41 10° 260° (W) 2,001 11.5 -6.3°
Maximum altitude 18:11:59 14° 230° (SW) 1,772 10.5 -6.9°
Drops below altitude 10° 18:14:17 10° 200° (SSW) 2,002 10.2 -7.4°
Sets 18:17:43 0° 173° (S) 2,911 10.6 -8.3°
